Preview of NWS' New Version of Forecast
This preview is not operational and should not be used for support decisions.

Regional Weather Roundup (RWR)

Issued by National Weather Service (NWS)

                            
000
ASUS45 KBOU 171810
RWRCO 

WEATHER ROUNDUP FOR COLORADO
NATIONAL WEATHER SERVICE DENVER/BOULDER CO
1100 AM MST SUN FEB 17 2019

NOTE: "FAIR" INDICATES FEW OR NO CLOUDS BELOW 12000 FEET WITH NO
SIGNIFICANT WEATHER AND/OR OBSTRUCTIONS TO VISIBILITY.

COZ001>005-013-030-031-171900-
...NORTHWEST COLORADO...
  
CITY           SKY/WX    TMP DP  RH WIND       PRES   REMARKS
CRAIG          PTSUNNY   18  12  77 CALM      29.85S                  
HAYDEN         FAIR      23  10  57 SE6       29.85S WCI  16          
MEEKER         FAIR      25   8  48 CALM      29.83S                  
RANGELY        FAIR      15   6  68 CALM      29.89S                  
RABBIT EARS PA FLURRIES N/A N/A N/A W6        29.69R                  
STEAMBOAT SPGS FAIR      14   6  72 CALM      29.83S                  
WALDEN         FAIR      10   0  61 N3        29.78R                  
$$

COZ006>008-011-171900-
...WEST CENTRAL VALLEYS...
  
CITY           SKY/WX    TMP DP  RH WIND       PRES   REMARKS
GRAND JUNCTION FAIR      31  15  52 SE8       29.87F WCI  23          
MONTROSE       FAIR      28  10  46 E13       29.88S WCI  17          
EAGLE          FAIR      33   8  35 CALM      29.88F                  
RIFLE          FAIR      24  11  57 S3        29.87F                  
DELTA          FAIR      33   9  36 E5        29.89S WCI  28          
NUCLA          FAIR      30  14  51 CALM      29.88S                  
$$

COZ017>023-064>068-171900-
...SOUTHWEST COLORADO...
  
CITY           SKY/WX    TMP DP  RH WIND       PRES   REMARKS
DURANGO        PTSUNNY   18   6  59 NE7       29.87S WCI   9          
CORTEZ         FAIR      34  15  46 S7        29.85F WCI  28          
PAGOSA SPRINGS FAIR      20   6  52 W3        29.85S                  
TELLURIDE      PTSUNNY   19  -4  35 CALM      29.78S                  
WOLF CREEK PAS PTSUNNY    5   1  85 S10G18    29.76R WCI -10          
$$

COZ009-010-012-014-032>034-037-058>063-171900-
...CENTRAL COLORADO...
  
CITY           SKY/WX    TMP DP  RH WIND       PRES   REMARKS
ASPEN          FAIR      23   4  44 N6        29.78R WCI  16          
BUENA VISTA    FAIR      17   1  49 SW3       29.79F                  
COPPER MTN     CLOUDY     7   0  72 SW8       29.65R HAZE    WCI  -6  
BERTHOUD PASS  CLOUDY    -4 -15  59 NW14G25   29.62R WCI -24          
COTTONWOOD PAS PTSUNNY   18   0  45 SW5       29.73S WCI  11          
GUNNISON       FAIR      -5 -11  75 SE3       29.90S                  
GRANBY         MOCLDY     7   1  76 CALM      29.81S                  
KREMMLING      CLOUDY    10   1  67 CALM      29.85S                  
LEADVILLE      LGT SNOW  10   1  67 CALM      29.71R                  
MONARCH PASS   CLOUDY     1  -2  85 MISG      29.77S                  
SALIDA         FAIR      29   0  28 SW15G22   29.88R WCI  17          
SUNLIGHT         N/A    N/A N/A N/A MISG      29.75S                  
WILKERSON PASS FAIR       9  -8  47 W7        29.71R WCI  -3          
$$

COZ069>075-171900-
...SAN LUIS VALLEY/SANGRE DE CRISTO MOUNTAINS...
  
CITY           SKY/WX    TMP DP  RH WIND       PRES   REMARKS
ALAMOSA        FAIR      18   2  49 CALM      29.85S                  
DEL NORTE      FAIR      11   0  60 E10       29.84S WCI  -2          
LA VETA PASS   NOT AVBL                                               
SAGUACHE       FAIR      19   1  45 CALM      29.85S                  
$$

COZ035-036-038>040-171900-
...NORTHERN COLORADO FRONT RANGE...
  
CITY           SKY/WX    TMP DP  RH WIND       PRES   REMARKS
DENVER INTL AP FAIR      26  18  71 E14       29.83R WCI  14          
AURORA         MOSUNNY   33  13  42 NE7       29.81S WCI  27          
FRONT RANGE AP NOT AVBL                                               
ERIE MUNI ARPT FAIR      28  19  69 E14       29.89R WCI  17          
BOULDER MUN AP FAIR      30  18  59 N7        29.83R WCI  23          
CENTENNIAL     FAIR      30   5  34 CALM      29.80S                  
BROOMFIELD     MOSUNNY   30  10  43 NE13      29.81R WCI  20          
FORT COLLINS   FAIR      29  14  53 E12       29.86S WCI  19          
LONGMONT       FAIR      32  18  55 E8        29.87R WCI  25          
$$

COZ041-046-047-076>085-087-088-171900-
...PIKES PEAK/PALMER DIVIDE AND SOUTHERN FOOTHILLS...
  
CITY           SKY/WX    TMP DP  RH WIND       PRES   REMARKS
COLO. SPRINGS  FAIR      33  -5  19 VRB5      29.80S WCI  29          
A. F. ACADEMY  FAIR      33  -8  16 W10G22    29.78R WCI  25          
SCHRIEVER AFB  NOT AVBL                                               
CHEYENNE MTN   FAIR      30  -4  23 SE3       29.74R                  
ELLICOTT       NOT AVBL                                               
FALCON         FAIR      32  -2  23 W9G16     29.80S WCI  24          
FORT CARSON    FAIR      36  -7  15 E9        29.80S                  
LIMON          FAIR      30  13  49 NW5       29.85S WCI  25          
MONUMENT HILL  FAIR      27   1  33 N5        29.80R WCI  21          
CANON CITY     FAIR      39   0  19 W9G25     29.81F                  
WALSENBURG     NOT AVBL                                               
TRINIDAD       FAIR      39  -6  14 SE10G20   29.83F                  
$$

COZ042>045-048>051-090-091-171900-
...NORTHEAST COLORADO...
  
CITY           SKY/WX    TMP DP  RH WIND       PRES   REMARKS
GREELEY ARPT   FAIR      29  16  58 E10       29.88S WCI  20          
AKRON          FAIR      22  12  65 N15G24    29.90R WCI   9          
BURLINGTON     CLOUDY    23  16  74 NE9       29.94R WCI  13          
WRAY           CLOUDY    27   9  46 N17G23    29.98R WCI  14          
YUMA           FAIR      23   7  50 N15G25    29.94R WCI  10          
STERLING       FAIR      23   9  54 N15G22    29.94S WCI  10          
HOLYOKE        FAIR      21   7  53 N18G25    29.97R WCI   6          
FORT MORGAN      N/A     25  12  57 NE13      29.91R WCI  14          
$$

COZ086-089-092>099-171900-
...SOUTHEAST COLORADO...
  
CITY           SKY/WX    TMP DP  RH WIND       PRES   REMARKS
PUEBLO         FAIR      43   2  18 W15       29.83F                  
LA JUNTA       FAIR      38   9  30 E7        29.90R                  
LAMAR          FAIR      35  21  56 E9        29.93R WCI  28          
SPRINGFIELD      N/A     38   6  26 VRB6      29.90S                  
$$